Flag Weather past 2 weeks in Provo, Utah, U.S.A.

Now
46 °F

Sunny.


Feels Like: 46 °F
Forecast: 39 / 66 °F
Wind: No wind

Location: Provo Municipal

Current Time: Oct 30, 2014 at 10:48:57 AM

Latest Report: Oct 30, 2014 at 9:50 AM


Visibility: 15 mi

Pressure: 30.31 "Hg

Humidity: 43%

Dew point: 25 °F

Location of ProvoLocation

Historic Weather in Provo — Graph

°F

Provo temperature yesterday

Maximum temperature yesterday: 61 °F (at 4:58 PM)
Minimum temperature yesterday: 30 °F (at 4:35 AM)
Average temperature yesterday: 41 °F

Past Weeks' High & Low Weather Summary

 TemperatureHumidityPressure
High79 °F (Oct 24, 3:55 PM)100% (Oct 16, 9:54 AM)30.34 "Hg (Oct 16, 9:54 AM)
Low30 °F (Oct 28, 5:15 AM)16% (Oct 24, 4:53 PM)29.89 "Hg (Oct 15, 3:51 PM)
Average50 °F54%30.11 "Hg
* Reported Oct 15 8:49 AM — Oct 30 8:55 AM, Provo, Weather by CustomWeather, © 2014

Note: Actual official high and low records may vary slightly from our data, if they occured in-between our weather recording intervals... More about our weather records

Advertising

Provo weather history for previous 24 hours

 ConditionsComfort  
Time TempWeatherWind HumidityBarometerVisibility
8:55 AM
Oct 30
37 °FSunny.No wind70%30.30 "Hg15 mi
7:49 AM37 °FClear.No wind65%30.30 "Hg15 mi
6:52 AM36 °FClear.No wind65%30.30 "Hg15 mi
6:35 AM37 °FClear.No wind60%30.30 "Hg10 mi
6:15 AM37 °FClear.6 mph56%30.30 "Hg10 mi
5:55 AM34 °FClear.3 mph70%30.30 "Hg10 mi
5:35 AM34 °FClear.3 mph70%30.30 "Hg10 mi
5:15 AM36 °FClear.3 mph65%30.29 "Hg10 mi
4:55 AM39 °FClear.3 mph61%30.29 "Hg10 mi
4:35 AM36 °FClear.No wind60%30.29 "Hg10 mi
4:15 AM34 °FClear.No wind70%30.29 "Hg10 mi
3:55 AM36 °FClear.3 mph70%30.29 "Hg10 mi
3:35 AM37 °FClear.3 mph65%30.29 "Hg10 mi
3:15 AM39 °FClear.No wind56%30.29 "Hg10 mi
2:55 AM39 °FClear.No wind52%30.29 "Hg10 mi
2:35 AM39 °FClear.7 mph56%30.29 "Hg3 mi
2:15 AM43 °FClear.7 mph49%30.30 "Hg10 mi
1:55 AM39 °FClear.No wind56%30.29 "Hg10 mi
1:35 AM37 °FClear.No wind65%30.29 "Hg10 mi
1:15 AM39 °FClear.No wind56%30.28 "Hg10 mi
12:55 AM43 °FClear.3 mph53%30.28 "Hg10 mi
12:35 AM39 °FClear.No wind61%30.28 "Hg10 mi
12:15 AM39 °FClear.No wind61%30.28 "Hg10 mi
11:55 PM
Oct 29
39 °FClear.No wind61%30.28 "Hg10 mi
11:35 PM43 °FClear.No wind57%30.28 "Hg10 mi
11:15 PM39 °FClear.No wind61%30.28 "Hg10 mi
10:55 PM43 °FClear.No wind53%30.28 "Hg10 mi
10:35 PM41 °FClear.No wind57%30.28 "Hg10 mi
10:15 PM43 °FClear.No wind57%30.28 "Hg10 mi
9:55 PM43 °FClear.3 mph53%30.27 "Hg10 mi
9:15 PM46 °FClear.5 mph43%30.26 "Hg10 mi
8:53 PM46 °FClear.No wind46%30.26 "Hg15 mi
7:50 PM50 °FClear.5 mph35%30.26 "Hg15 mi
6:47 PM55 °FSunny.5 mph24%30.24 "Hg15 mi
4:58 PM61 °FSunny.6 mph23%30.25 "Hg15 mi
3:59 PM59 °FSunny.5 mph27%30.25 "Hg15 mi
2:47 PM57 °FSunny.5 mph31%30.27 "Hg15 mi
1:59 PM55 °FSunny.5 mph38%30.29 "Hg15 mi
12:55 PM54 °FScattered clouds.5 mph38%30.31 "Hg15 mi
11:49 AM54 °FScattered clouds.7 mph28%30.32 "Hg15 mi
10:59 AM46 °FScattered clouds.3 mph40%30.34 "Hg15 mi
Weather by CustomWeather, © 2014

See weather overviewHow to use our weather pages